This is the latest recevied weather packets stored in our database for station/object K5IDL. If no packets are shown the sender has not sent any weather packets the latest 10 day(s).
| Time | Temp. | Humidity | Pressure | Rain* | Wind** | Luminosity | Snow |
|---|---|---|---|---|---|---|---|
| 1777668555 | 18.89° C | 55% | 1016.9 hPa | 0 mm | - | 146 W/m² | - |
| 1777668251 | 18.33° C | 55% | 1017 hPa | 0 mm | - | 159 W/m² | - |
| 1777667947 | 18.33° C | 55% | 1017.3 hPa | 0 mm | - | 142 W/m² | - |
| 1777667644 | 18.33° C | 55% | 1017.2 hPa | 0 mm | - | 131 W/m² | - |
| 1777667342 | 17.78° C | 55% | 1017.4 hPa | 0 mm | - | 126 W/m² | - |
| 1777667038 | 18.33° C | 55% | 1017.4 hPa | 0 mm | - | 103 W/m² | - |
| 1777666735 | 18.33° C | 55% | 1017.1 hPa | 0 mm | - | 110 W/m² | - |
| 1777666432 | 18.33° C | 55% | 1017.4 hPa | 0 mm | - | 88 W/m² | - |
| 1777666129 | 18.33° C | 55% | 1017.1 hPa | 0 mm | - | 121 W/m² | - |
| 1777665826 | 18.33° C | 53% | 1017.1 hPa | 0 mm | - | 160 W/m² | - |
| 1777665524 | 18.33° C | 53% | 1016.9 hPa | 0 mm | - | 156 W/m² | - |
| 1777665219 | 18.33° C | 54% | 1016.8 hPa | 0 mm | - | 144 W/m² | - |
| 1777664915 | 17.78° C | 53% | 1016.8 hPa | 0 mm | - | 108 W/m² | - |
| 1777664611 | 18.33° C | 54% | 1016.6 hPa | 0 mm | - | 95 W/m² | - |
| 1777664308 | 18.33° C | 53% | 1017.1 hPa | 0 mm | - | 90 W/m² | - |
| 1777664007 | 18.33° C | 53% | 1016.8 hPa | 0 mm | - | 110 W/m² | - |
| 1777663704 | 18.33° C | 54% | 1016.8 hPa | 0 mm | - | 118 W/m² | - |
| 1777663401 | 18.33° C | 54% | 1016.4 hPa | 0 mm | - | 142 W/m² | - |
| 1777663098 | 18.33° C | 54% | 1016.2 hPa | 0 mm | - | 150 W/m² | - |
| 1777662795 | 18.33° C | 55% | 1016.9 hPa | 0 mm | - | 149 W/m² | - |
| 1777662491 | 17.78° C | 56% | 1016.8 hPa | 0 mm | - | 150 W/m² | - |
| 1777662187 | 18.33° C | 55% | 1016.9 hPa | 0 mm | - | 165 W/m² | - |
| 1777661883 | 18.89° C | 54% | 1016.7 hPa | 0 mm | - | 187 W/m² | - |
| 1777661579 | 18.89° C | 54% | 1016.4 hPa | 0 mm | - | 228 W/m² | - |
| 1777661275 | 18.89° C | 53% | 1016.8 hPa | 0 mm | - | 281 W/m² | - |
* Rain latest hour (hover to see other rain measurements)
** Current wind speed in m/s (hover to see current wind gust speed)